Location: Limerick
(52.6650°N, 8.6230°W)
Time: 14:47:42
(UTC+01:00)

ISS - Pass Details

Date: 03 September 2019
Orbit: 411 x 421 km, 51.6° (Epoch: 20 September)

Event Time Altitude Azimuth Distance (km) Brightness Sun altitude
Exits shadow 06:02:07 10° 250° (WSW) 1,494 -1.7 -7.4°
Reaches altitude 10° 06:02:08 10° 250° (WSW) 1,489 -1.7 -7.4°
Maximum altitude 06:05:26 64° 168° (SSE) 467 -3.6 -6.9°
Drops below altitude 10° 06:08:46 10° 87° (E) 1,499 0.5 -6.5°
Sets 06:10:53 0° 84° (E) 2,366 1.9 -6.2°
